Regional Weather Roundup
Issued by NWS

Home | Current Version | Previous Version | Text Only | Print | Product List | Glossary Off
Versions: 1 2 3 4 5 6 7 8 9 10 11 12 13 14 15 16 17 18 19 20 21 22 23 24 25 26 27

000
ASUS45 KCYS 251810
RWRWY

WYOMING REGIONAL WEATHER ROUNDUP
NATIONAL WEATHER SERVICE CHEYENNE WY
1200 PM MDT SUN JUN 25 2017

NOTE:  "FAIR" INDICATES FEW OR NO CLOUDS BELOW 12,000 FEET
WITH NO SIGNIFICANT WEATHER AND/OR OBSTRUCTIONS TO VISIBILITY.

WYZ001-251900-
YELLOWSTONE NATIONAL PARK

CITY           SKY/WX    TMP DP  RH WIND       PRES   REMARKS
LK YELLOWSTONE   N/A     58  39  49 VRB3      30.48F
6HR MIN TEMP:  32; 6HR MAX TEMP:  59;

W YELLOWSTONE  NOT AVBL

$$
WYZ002>013-054>058-071-098>099-251900-
NORTHERN WYOMING

CITY           SKY/WX    TMP DP  RH WIND       PRES   REMARKS
JACKSON        SUNNY     66  43  42 CALM      30.39F
CODY           FAIR      69  34  27 VRB5      30.36F
GREYBULL       FAIR      74  32  21 VRB6      30.29F
6HR MIN TEMP:  51; 6HR MAX TEMP:  75;

WORLAND        FAIR      74  37  26 MISG      30.30F
6HR MIN TEMP:  48; 6HR MAX TEMP:  74;

SHERIDAN       FAIR      73  38  27 VRB3      30.31F
6HR MIN TEMP:  45; 6HR MAX TEMP:  73;

BUFFALO        FAIR      70  36  28 NE9       30.35F
6HR MIN TEMP:  47; 6HR MAX TEMP:  70;

GILLETTE       FAIR      74  32  21 NW13G20   30.30F
6HR MIN TEMP:  45; 6HR MAX TEMP:  74;

NEWCASTLE      FAIR      68  32  26 SW6       30.34F

$$
WYZ014>020-022>026-101>103-251900-
CENTRAL WYOMING

CITY           SKY/WX    TMP DP  RH WIND       PRES   REMARKS
BIG PINEY      FAIR      69  37  30 SW7       30.43F
6HR MIN TEMP:  38; 6HR MAX TEMP:  69;

PINEDALE       FAIR      68  32  26 W6        30.44F
DUBOIS         FAIR      64  32  29 CALM      30.41F
LANDER         FAIR      67  37  33 CALM      30.36F
6HR MIN TEMP:  49; 6HR MAX TEMP:  69;

RIVERTON       FAIR      68  34  28 S8        30.36F
6HR MIN TEMP:  50; 6HR MAX TEMP:  69;

CASPER         FAIR      71  34  25 VRB6      30.35F
6HR MIN TEMP:  49; 6HR MAX TEMP:  72;

DOUGLAS        FAIR      70  37  29 VRB5      30.34F
6HR MIN TEMP:  52; 6HR MAX TEMP:  72;


$$
WYZ021-027>030-104>119-251900-
SOUTHERN WYOMING

CITY           SKY/WX    TMP DP  RH WIND       PRES   REMARKS
EVANSTON       FAIR      71  38  29 VRB3      30.41F
6HR MIN TEMP:  49; 6HR MAX TEMP:  72;

KEMMERER         N/A     68  32  26 CALM      30.45S
FORT BRIDGER   FAIR      71  33  25 E8        30.45F
ROCK SPRINGS   FAIR      71  31  22 N5        30.41F
6HR MIN TEMP:  49; 6HR MAX TEMP:  71;

DIXON          FAIR      75  33  20 W8        30.39F
RAWLINS        FAIR      70  34  26 VRB5      30.40F
6HR MIN TEMP:  48; 6HR MAX TEMP:  71;

SARATOGA       FAIR      70  36  28 N10       30.41F
LARAMIE        FAIR      68  40  35 VRB6      30.39F
6HR MIN TEMP:  42; 6HR MAX TEMP:  70;

CHEYENNE       CLOUDY    60  47  61 E9        30.40F
6HR MIN TEMP:  48; 6HR MAX TEMP:  61;

TORRINGTON     PTSUNNY   72  40  31 VRB7      30.32F
6HR MIN TEMP:  53; 6HR MAX TEMP:  72; 6HR PCP: TRACE;

PINE BLUFFS    CLOUDY    59  43  55 S7        30.39F

$$




USA.gov is the U.S. government's official web portal to all federal, state and local government web resources and services.